Location: Mohawk View
(42.7837°N, 73.7885°W)
Time: 13:35:34
(UTC+00:00)

Cosmos 1892 - Pass Details

Date: 17 June 2021
Orbit: 501 x 524 km, 82.5° (Epoch: 30 July)

Event Time Altitude Azimuth Distance (km) Brightness Sun altitude
Exits shadow 05:17:43 34° 83° (E) 873 3.9 -23.6°
Drops below altitude 10° 05:21:01 10° 26° (NNE) 1,773 6.4 -23.6°
Sets 05:23:18 0° 17° (NNE) 2,668 7.7 -23.5°
